"2016-06-05 18:10:00"0,2.666,2.656,198.2,5.025
"2016-06-05 18:20:00"1,2.552,2.536,193.5,6.51
"2016-06-05 18:30:00"2,2.398,2.382,196.4,6.476
"2016-06-05 18:40:00"3,2.716,2.696,200.6,7.066
"2016-06-05 18:50:00"4,2.716,2.705,204,5.213
"2016-06-05 19:00:00"5,2.694,2.688,206,3.929
"2016-06-05 19:10:00"6,2.724,2.712,206.5,5.381
"2016-06-05 19:20:00"7,2.903,2.891,211,5.084
"2016-06-05 19:30:00"8,3.033,3.02,213.7,5.114
"2016-06-05 19:40:00"9,2.856,2.846,208.8,4.766
"2016-06-05 19:50:00"10,2.792,2.78,207.6,5.307
"2016-06-05 20:00:00"11,2.974,2.964,206.7,4.508
"2016-06-05 20:10:00"0,2.231,2.227,208.3,3.247
"2016-06-05 20:20:00"1,2.346,2.338,205.9,4.854
"2016-06-05 20:30:00"2,2.405,2.391,210.1,6.149
"2016-06-05 20:40:00"3,2.255,2.238,206.8,7.12
"2016-06-05 20:50:00"4,2.346,2.32,206.1,8.47
"2016-06-05 21:00:00"5,2.422,2.409,212.1,5.903
"2016-06-05 21:10:00"6,2.959,2.95,210,4.384
"2016-06-05 21:20:00"7,2.751,2.735,210.9,6.102
"2016-06-05 21:30:00"8,2.729,2.718,210.6,5.019
"2016-06-05 21:40:00"9,2.755,2.742,212.7,5.582
"2016-06-05 21:50:00"10,2.741,2.731,210.3,4.928
"2016-06-05 22:00:00"11,2.8,2.781,208.8,6.666
"2016-06-05 22:10:00"12,2.577,2.545,208.4,8.9
"2016-06-05 22:20:00"13,2.474,2.465,205.8,4.81
"2016-06-05 22:30:00"14,2.388,2.372,200.3,6.636
"2016-06-05 22:40:00"15,2.356,2.342,204,6.263
"2016-06-05 22:50:00"16,2.211,2.19,200.7,7.934
"2016-06-05 23:00:00"17,2.179,2.166,195.9,6.313
"2016-06-05 23:10:00"18,2.246,2.226,191.1,7.589
"2016-06-05 23:20:00"19,1.976,1.911,180.8,14.69
"2016-06-05 23:30:00"20,1.775,1.741,156.4,11.22
"2016-06-05 23:40:00"21,1.576,1.545,153.7,11.45
"2016-06-05 23:50:00"22,1.532,1.486,146.3,14.07
"2016-06-06 00:00:00"23,1.589,1.561,156.5,10.68
"2016-06-06 00:10:00"24,1.655,1.62,155,11.79
"2016-06-06 00:20:00"25,1.549,1.515,149.8,12.09
"2016-06-06 00:30:00"26,1.365,1.322,139.1,14.37
"2016-06-06 00:40:00"27,1.255,1.241,136.5,8.7
"2016-06-06 00:50:00"28,1.128,1.084,121.1,15.91
"2016-06-06 01:00:00"29,1.238,1.204,113,13.41
"2016-06-06 01:10:00"30,1.135,1.095,88.1,15.2
"2016-06-06 01:20:00"31,1.039,1.001,99.6,15.52
"2016-06-06 01:30:00"32,1.211,1.195,86.2,9.35
"2016-06-06 01:40:00"33,1.066,1.042,99.1,12.33
"2016-06-06 01:50:00"34,0.887,0.84,110.6,18.76
"2016-06-06 02:00:00"35,0.978,0.934,133.8,17.15
"2016-06-06 02:10:00"36,0.981,0.935,128.2,17.53
"2016-06-06 02:20:00"37,0.897,0.847,121.3,19.13
"2016-06-06 02:30:00"38,1.025,0.945,100.1,22.57
"2016-06-06 02:40:00"39,0.941,0.912,90.6,14.38
"2016-06-06 02:50:00"40,0.912,0.816,136,26.31
"2016-06-06 03:00:00"41,1.115,1.076,149.4,15.2
"2016-06-06 03:10:00"42,1.133,1.116,144.8,9.77
"2016-06-06 03:20:00"43,1.111,1.064,151.8,16.51
"2016-06-06 03:30:00"44,1.209,1.182,149,11.94
"2016-06-06 03:40:00"45,1.236,1.192,125,15.2
"2016-06-06 03:50:00"46,0.819,0.79,104.1,15.3
"2016-06-06 04:00:00"47,0.936,0.909,79.51,13.96
"2016-06-06 04:10:00"48,0.966,0.938,71.74,13.82
"2016-06-06 04:20:00"49,0.824,0.784,97.6,17.68
"2016-06-06 04:30:00"50,0.87,0.803,110.5,22.55
"2016-06-06 04:40:00"51,1.128,1.103,95.6,12.01
"2016-06-06 04:50:00"52,1.128,1.089,94.9,14.98
"2016-06-06 05:00:00"53,0.89,0.859,111.9,15.05
"2016-06-06 05:10:00"54,1.243,1.197,107.7,15.49
"2016-06-06 05:20:00"55,1.216,1.196,113.6,10.45
"2016-06-06 05:30:00"56,1.194,1.174,92.5,10.48
"2016-06-06 05:40:00"57,1.275,1.261,86.8,8.34
"2016-06-06 05:50:00"58,1.253,1.24,86.9,8.29
"2016-06-06 06:00:00"59,1.341,1.314,88.9,11.39
"2016-06-06 06:10:00"60,1.26,1.243,88.1,9.49
"2016-06-06 06:20:00"61,1.39,1.363,79.76,11.38
"2016-06-06 06:30:00"62,1.596,1.585,85.4,6.764
"2016-06-06 06:40:00"63,1.753,1.731,78.36,8.95
"2016-06-06 06:50:00"64,1.603,1.582,83.5,9.38
"2016-06-06 07:00:00"65,1.456,1.439,71.99,8.74
"2016-06-06 07:10:00"66,1.51,1.487,74.07,10.1
"2016-06-06 07:20:00"67,1.616,1.602,77.01,7.389
"2016-06-06 07:30:00"68,1.395,1.382,80.7,7.645
"2016-06-06 07:40:00"69,1.684,1.666,76.16,8.34
"2016-06-06 07:50:00"70,1.917,1.907,80.8,5.957
"2016-06-06 08:00:00"71,1.981,1.962,74.26,7.839
"2016-06-06 08:10:00"72,2.108,2.092,75.56,7.118
"2016-06-06 08:20:00"73,2.054,2.042,74.29,6.276
"2016-06-06 08:30:00"74,2.52,2.503,73.02,6.734
"2016-06-06 08:40:00"75,2.125,2.107,69.96,7.621
"2016-06-06 08:50:00"76,1.951,1.93,73.44,8.45
"2016-06-06 09:00:00"77,1.598,1.584,80.1,7.729
"2016-06-06 09:10:00"78,1.571,1.553,73.51,8.88
"2016-06-06 09:20:00"79,1.65,1.634,74.84,8.04
"2016-06-06 09:30:00"80,1.768,1.753,80.5,7.278
"2016-06-06 09:40:00"81,1.77,1.752,72.64,8.09
"2016-06-06 09:50:00"82,1.839,1.822,74.16,7.638
"2016-06-06 10:00:00"83,1.868,1.856,72.87,6.369
"2016-06-06 10:10:00"84,1.687,1.657,76.28,10.71
"2016-06-06 10:20:00"85,1.765,1.752,72.14,6.862
"2016-06-06 10:30:00"86,1.574,1.56,74.33,7.67
"2016-06-06 10:40:00"87,1.78,1.768,73.41,6.547
"2016-06-06 10:50:00"88,1.537,1.523,79.26,7.772
"2016-06-06 11:00:00"89,1.554,1.544,78.93,6.417
"2016-06-06 11:10:00"90,2.003,1.995,75.09,5.222
"2016-06-06 11:20:00"91,2.275,2.265,76.24,5.358
"2016-06-06 11:30:00"92,2.361,2.344,76.95,6.876
"2016-06-06 11:40:00"93,2.304,2.289,77.01,6.718
"2016-06-06 11:50:00"94,1.929,1.907,74.09,8.74
"2016-06-06 12:00:00"95,1.831,1.82,71.72,6.491
"2016-06-06 12:10:00"96,1.706,1.695,70.31,6.63
"2016-06-06 12:20:00"97,1.669,1.656,72.63,7.282
"2016-06-06 12:30:00"98,1.665,1.655,72.57,6.29
"2016-06-06 12:40:00"99,1.643,1.627,71.44,7.892
"2016-06-06 12:50:00"100,1.684,1.668,71.2,8.06
"2016-06-06 13:00:00"101,1.603,1.593,74.5,6.634
"2016-06-06 13:10:00"102,2.089,2.08,75.07,5.148
"2016-06-06 13:20:00"103,2.199,2.184,76.35,6.718
"2016-06-06 13:30:00"104,2.16,2.138,73.8,8.13
"2016-06-06 13:40:00"105,2.121,2.11,71.36,5.778
"2016-06-06 13:50:00"106,1.829,1.822,67.15,5.01
"2016-06-06 14:00:00"107,1.721,1.714,70.18,5.282
"2016-06-06 14:10:00"108,1.098,1.078,62.24,10.95
"2016-06-06 14:20:00"109,0.748,0.733,55.44,11.26
"2016-06-06 14:30:00"110,0.601,0.553,68,22.72
"2016-06-06 14:40:00"111,0.632,0.586,103.2,22
"2016-06-06 14:50:00"112,0.792,0.774,80.4,12.23
"2016-06-06 15:00:00"113,1.142,1.124,77.81,10.24
"2016-06-06 15:10:00"0,0.686,0.664,76.42,14.57
"2016-06-06 15:20:00"1,1.03,1.019,89.8,8.42
"2016-06-06 15:30:00"2,1.209,1.196,77.04,8.16
"2016-06-06 15:40:00"3,0.922,0.913,66.7,8.12
"2016-06-06 15:50:00"4,0.978,0.967,68.62,8.48
"2016-06-06 16:00:00"5,0.802,0.793,64.32,8.47
"2016-06-06 16:10:00"6,0.691,0.674,81.5,12.65
"2016-06-06 16:20:00"7,0.591,0.564,85.9,17.41
"2016-06-06 16:30:00"8,0.699,0.687,103.8,10.38
"2016-06-06 16:40:00"9,0.892,0.874,99,11.58
"2016-06-06 16:50:00"10,0.76,0.737,91.7,14.11
"2016-06-06 17:00:00"11,0.662,0.628,64.75,18.3
"2016-06-06 17:10:00"12,0.696,0.677,32.58,13.48
"2016-06-06 17:20:00"13,0.735,0.72,28.47,11.92
"2016-06-06 17:30:00"14,0.699,0.679,38.81,13.43
"2016-06-06 17:40:00"15,0.458,0.409,41.52,26.6
"2016-06-06 17:50:00"16,0.39,0.359,46.62,22.77
"2016-06-06 18:00:00"17,0.275,0.237,46.44,29.99
"2016-06-06 18:10:00"18,0.228,0.186,71.53,31.95
"2016-06-06 18:20:00"19,0.142,0.055,100.2,56.58
"2016-06-06 18:30:00"20,0.213,0.169,42.09,34.16
"2016-06-06 18:40:00"21,0.169,0.103,64.84,42.37
"2016-06-06 18:50:00"22,0.279,0.2,97.4,42.18
"2016-06-06 19:00:00"23,0.368,0.324,80,27.24
"2016-06-06 19:10:00"24,0.282,0.227,60.22,33.89
"2016-06-06 19:20:00"25,0.24,0.183,19.89,38.5
"2016-06-06 19:30:00"26,0.306,0.252,338.3,32.35
"2016-06-06 19:40:00"27,0.478,0.434,312.5,24.7
"2016-06-06 19:50:00"28,0.556,0.53,313.3,17.59
"2016-06-06 20:00:00"29,0.802,0.784,303.8,12.06
"2016-06-06 20:10:00"30,0.858,0.841,299.6,11.45
"2016-06-06 20:20:00"31,0.946,0.93,285,10.63
"2016-06-06 20:30:00"32,0.959,0.947,281.8,8.88
"2016-06-06 20:40:00"33,0.88,0.867,277.3,9.95
"2016-06-06 20:50:00"34,0.956,0.949,278.3,7.116
"2016-06-06 21:00:00"35,1.03,1.014,264.8,10.11
"2016-06-06 22:20:00"0,1.087,1.083,246,4.807
"2016-06-06 22:30:00"1,1.093,1.086,236.5,6.811
"2016-06-06 22:40:00"2,1.025,1.017,227.6,6.83
"2016-06-06 22:50:00"3,0.858,0.847,219.8,9.02
"2016-06-06 23:00:00"4,0.787,0.772,208.1,11.11
"2016-06-06 23:10:00"5,0.892,0.877,205.6,10.62
"2016-06-06 23:20:00"6,0.544,0.522,210.4,16.39
"2016-06-06 23:30:00"7,0.488,0.438,188,26.01
"2016-06-06 23:40:00"8,0.566,0.538,194.3,18.26
"2016-06-06 23:50:00"9,0.883,0.823,91,21.1
"2016-06-07 00:00:00"10,0.907,0.897,72.08,8.71
"2016-06-07 00:10:00"11,0.91,0.901,76.99,7.709
"2016-06-07 00:20:00"12,0.88,0.875,68.01,6.168
"2016-06-07 00:30:00"13,0.694,0.68,68.42,11.24
"2016-06-07 00:40:00"14,0.549,0.513,74.7,20.9
"2016-06-07 00:50:00"15,0.834,0.812,72.58,13.12
"2016-06-07 01:00:00"16,0.62,0.598,83.4,15.24
"2016-06-07 01:10:00"17,0.618,0.591,80.9,16.86
"2016-06-07 01:20:00"18,0.721,0.711,79.06,9.61
"2016-06-07 01:30:00"19,0.936,0.908,98.6,14.14
"2016-06-07 01:40:00"20,1.008,0.997,102.2,8.3
"2016-06-07 01:50:00"21,0.738,0.725,85.3,10.9
"2016-06-07 02:00:00"22,0.787,0.762,69.61,14.52
"2016-06-07 02:10:00"23,0.473,0.421,108.5,27.01
"2016-06-07 02:20:00"24,0.574,0.551,107.6,15.72
"2016-06-07 02:30:00"25,0.53,0.493,106.9,21.13
"2016-06-07 02:40:00"26,1.091,1.053,91.6,15.13
"2016-06-07 02:50:00"27,0.954,0.938,94.5,10.38
"2016-06-07 03:00:00"28,1.12,1.098,87.3,11.43
"2016-06-07 03:10:00"29,1.189,1.18,90.8,7.02
"2016-06-07 03:20:00"30,1.044,1.027,81.2,10.32
"2016-06-07 03:30:00"31,0.885,0.872,82.4,9.65
"2016-06-07 03:40:00"32,0.667,0.654,78.63,11.4
"2016-06-07 03:50:00"33,0.743,0.735,77.3,8.3
"2016-06-07 04:00:00"34,0.74,0.731,54.76,9.32
"2016-06-07 04:10:00"35,0.745,0.739,65.04,7.441
"2016-06-07 04:20:00"36,1.106,1.086,71.91,10.69
"2016-06-07 04:30:00"37,1.135,1.121,82.2,8.92
"2016-06-07 04:40:00"38,1.047,1.033,92.4,9.46
"2016-06-07 04:50:00"39,1.012,0.992,91,11.48
"2016-06-07 05:00:00"40,0.9,0.894,87.4,6.225
"2016-06-07 05:10:00"41,0.902,0.874,91.7,14.37
"2016-06-07 05:20:00"42,0.764,0.746,89.4,12.21
"2016-06-07 05:30:00"43,0.794,0.778,85.5,11.66
"2016-06-07 05:40:00"44,0.539,0.499,81.9,22.16
"2016-06-07 05:50:00"45,0.37,0.278,87.9,38.41
"2016-06-07 06:00:00"46,0.414,0.378,169.4,24
"2016-06-07 06:10:00"47,0.576,0.555,188.3,15.65
"2016-06-07 06:20:00"48,0.604,0.551,183.4,23.89
"2016-06-07 06:30:00"49,1.01,0.99,175.9,11.28
"2016-06-07 06:40:00"50,1.211,1.183,178.5,12.25
"2016-06-07 06:50:00"51,1.775,1.757,189.4,8.19
"2016-06-07 07:00:00"52,2.067,2.055,181.5,5.95
"2016-06-07 07:10:00"53,2.373,2.359,190.2,6.241
"2016-06-07 07:20:00"54,2.415,2.403,184.5,5.752
"2016-06-07 07:30:00"55,2.697,2.688,185.3,4.608
"2016-06-07 07:40:00"56,3.037,3.002,187.3,8.7
"2016-06-07 07:50:00"57,3.037,3.012,178.7,7.346
"2016-06-07 08:00:00"58,3.231,3.206,182.6,7.2
"2016-06-07 08:10:00"59,3.312,3.285,177.3,7.322
"2016-06-07 08:20:00"60,3.62,3.565,169,9.98
"2016-06-07 08:30:00"61,3.312,3.266,151.6,9.57
"2016-06-07 08:40:00"62,3.172,3.144,139.6,7.62
"2016-06-07 08:50:00"63,2.633,2.601,137.9,8.98
"2016-06-07 09:00:00"64,2.243,2.211,154.2,9.74
"2016-06-07 09:10:00"65,2.952,2.934,155.8,6.239
"2016-06-07 09:20:00"66,2.372,2.34,160.8,9.31
"2016-06-07 09:30:00"67,1.961,1.935,143.9,9.33
"2016-06-07 09:40:00"68,1.929,1.861,136.1,15.23
"2016-06-07 09:50:00"69,1.844,1.792,148.1,13.58
"2016-06-07 10:00:00"70,2.388,2.375,178.5,5.823
"2016-06-07 10:10:00"71,3.135,3.121,160.4,5.526
"2016-06-07 10:20:00"72,2.635,2.605,174.4,8.76
"2016-06-07 10:30:00"73,2.042,1.999,188.6,11.71
"2016-06-07 10:40:00"74,2.138,2.112,175.8,8.91
"2016-06-07 10:50:00"75,2.471,2.447,176.7,8.01
"2016-06-07 11:00:00"76,2.778,2.76,181,6.447
"2016-06-07 11:10:00"77,2.917,2.893,180.7,7.421
"2016-06-07 11:20:00"78,2.717,2.655,175.9,12.28
"2016-06-07 11:30:00"79,2.623,2.59,174.2,9.13
"2016-06-07 11:40:00"80,2.535,2.5,167.1,9.51
"2016-06-07 11:50:00"81,2.773,2.754,179.5,6.719
"2016-06-07 12:00:00"82,3.64,3.629,186.1,4.525
"2016-06-07 12:10:00"83,3.243,3.189,170,10.49
"2016-06-07 12:20:00"84,2.565,2.54,155.9,7.926
"2016-06-07 12:30:00"85,2.567,2.523,161.8,10.51
"2016-06-07 12:40:00"86,2.496,2.476,155.7,7.195
"2016-06-07 12:50:00"87,2.638,2.618,155.7,7.056
"2016-06-07 13:00:00"88,2.572,2.554,160.2,6.646
"2016-06-07 13:10:00"89,2.444,2.402,151.8,10.63
"2016-06-07 13:20:00"90,2.525,2.49,145.6,9.49
"2016-06-07 13:30:00"91,2.508,2.489,154.2,7.078
"2016-06-07 13:40:00"92,2.184,2.137,152.5,11.89
"2016-06-07 13:50:00"93,2.201,2.168,167.6,10.01
"2016-06-07 14:00:00"94,2.125,2.099,174.4,9
"2016-06-07 14:10:00"95,1.942,1.918,171.6,9.01
"2016-06-07 14:20:00"96,1.711,1.693,170.8,8.32
"2016-06-07 14:30:00"97,1.821,1.796,175.5,9.5
"2016-06-07 14:40:00"98,1.596,1.557,175.3,12.68
"2016-06-07 14:50:00"99,1.613,1.586,171.1,10.51
"2016-06-07 15:00:00"100,2.13,2.109,185.5,8.05
"2016-06-07 15:10:00"101,2.621,2.608,192.3,5.666
"2016-06-07 15:20:00"102,2.547,2.532,190.5,6.21
"2016-06-07 15:30:00"103,2.523,2.504,189.1,6.945
"2016-06-07 15:40:00"104,2.741,2.729,187.6,5.364
"2016-06-07 15:50:00"105,2.736,2.722,186.7,5.826
"2016-06-07 16:00:00"106,2.729,2.711,185.4,6.527
"2016-06-07 16:10:00"107,2.601,2.586,181.6,6.079
"2016-06-07 16:20:00"108,2.567,2.548,186.1,6.914
"2016-06-07 16:30:00"109,2.885,2.865,185,6.817
"2016-06-07 16:40:00"110,3.172,3.164,189.9,4.217
"2016-06-07 16:50:00"111,3.506,3.483,189.4,6.499
"2016-06-07 17:00:00"112,3.638,3.619,192.1,5.809
"2016-06-07 17:10:00"113,3.442,3.433,192,4.192
"2016-06-07 17:20:00"114,3.515,3.488,193.6,7.072
"2016-06-07 17:30:00"115,3.601,3.589,196.6,4.653
"2016-06-07 17:40:00"116,3.474,3.456,199.6,5.855
"2016-06-07 17:50:00"117,3.302,3.289,202.2,5.101
"2016-06-07 18:00:00"118,3.493,3.475,199.4,5.855
"2016-06-07 18:10:00"119,2.888,2.871,202,6.186
"2016-06-07 18:20:00"120,3.264,3.247,200.6,5.921
"2016-06-07 18:30:00"121,2.92,2.916,204.4,2.772
"2016-06-07 18:40:00"122,3.172,3.16,207.4,5.097
"2016-06-07 18:50:00"123,3.175,3.165,211.9,4.513
"2016-06-07 19:00:00"124,3.361,3.353,207.1,3.985
"2016-06-07 19:10:00"125,3.501,3.491,206,4.351
"2016-06-07 19:20:00"126,3.604,3.59,210.5,4.944
"2016-06-07 19:30:00"127,3.721,3.71,206.8,4.428
"2016-06-07 19:40:00"128,3.761,3.747,207,4.821
"2016-06-07 19:50:00"129,3.802,3.791,203.6,4.373
"2016-06-07 20:00:00"130,3.655,3.639,203.8,5.44
"2016-06-07 20:10:00"131,3.69,3.683,201.7,3.49
"2016-06-07 20:20:00"132,3.757,3.74,202.2,5.457
"2016-06-07 20:30:00"133,3.523,3.51,200.5,4.961
"2016-06-07 20:40:00"134,3.437,3.426,199.7,4.549
"2016-06-07 20:50:00"135,3.287,3.263,199.8,7.053
"2016-06-07 21:00:00"136,3.42,3.392,196.8,7.265
"2016-06-07 21:10:00"137,3.332,3.317,195.5,5.427
"2016-06-07 21:20:00"138,2.978,2.967,197.9,4.841
"2016-06-07 21:30:00"139,3.084,3.073,193.4,4.921
"2016-06-07 21:40:00"140,3.211,3.19,192.6,6.635
"2016-06-07 21:50:00"141,3.197,3.178,195.2,6.274
"2016-06-07 22:00:00"142,3.474,3.465,194.1,4.13
"2016-06-07 22:10:00"143,3.506,3.493,193,4.803
"2016-06-07 22:20:00"144,3.229,3.2,187.9,7.645
"2016-06-07 22:30:00"145,3.184,3.167,191.6,6.051
"2016-06-07 22:40:00"146,3.133,3.102,187.1,8.01
"2016-06-07 22:50:00"147,3.035,3.018,182.2,6.008
"2016-06-07 23:00:00"148,3.425,3.413,177.7,4.768
"2016-06-07 23:10:00"149,3.162,3.133,177.6,7.783
"2016-06-07 23:20:00"150,3.267,3.248,181.1,6.131
"2016-06-07 23:30:00"151,2.893,2.881,185.1,5.072
"2016-06-07 23:40:00"152,2.716,2.694,178,7.277
"2016-06-07 23:50:00"153,2.554,2.529,170.3,8.04
"2016-06-08 00:00:00"154,2.304,2.273,163.7,9.45
"2016-06-08 00:10:00"155,2.341,2.329,173,5.943
"2016-06-08 00:20:00"156,2.383,2.363,177.6,7.477
"2016-06-08 00:30:00"157,2.608,2.594,177,6.058
"2016-06-08 00:40:00"158,2.758,2.745,173,5.606
"2016-06-08 00:50:00"159,3.251,3.222,175.3,7.645
"2016-06-08 01:00:00"160,3.417,3.406,171.3,4.718
"2016-06-08 01:10:00"161,3.449,3.424,174.5,6.963
"2016-06-08 01:20:00"162,3.412,3.386,173.8,7.133
"2016-06-08 01:30:00"163,3.427,3.39,172.1,8.45
"2016-06-08 01:40:00"164,3.574,3.551,172,6.534
"2016-06-08 01:50:00"165,3.547,3.529,173.2,5.856
"2016-06-08 02:00:00"166,3.716,3.7,171.2,5.42
"2016-06-08 02:10:00"167,3.408,3.387,176,6.35
"2016-06-08 02:20:00"168,3.587,3.544,176,8.81
"2016-06-08 02:30:00"169,3.697,3.676,177.7,6.067
"2016-06-08 02:40:00"170,4.035,4.021,178.1,4.879
"2016-06-08 02:50:00"171,3.868,3.852,175.3,5.235
"2016-06-08 03:00:00"172,4.087,4.061,173.1,6.451
"2016-06-08 03:10:00"173,3.937,3.919,175.2,5.452
"2016-06-08 03:20:00"174,3.623,3.603,176.9,6.016
"2016-06-08 03:30:00"175,3.572,3.54,180,7.623
"2016-06-08 03:40:00"176,3.846,3.824,176.2,6.243
"2016-06-08 03:50:00"177,3.952,3.942,177.1,3.955
"2016-06-08 04:00:00"178,3.905,3.897,178.5,3.719
"2016-06-08 04:10:00"179,3.768,3.734,177.3,7.734
"2016-06-08 04:20:00"180,3.866,3.835,172.7,7.2
"2016-06-08 04:30:00"181,3.964,3.937,179.6,6.742
"2016-06-08 04:40:00"182,4.011,3.977,180.4,7.418
"2016-06-08 04:50:00"183,3.861,3.839,180.1,6.191
"2016-06-08 05:00:00"184,3.68,3.661,180,5.727
"2016-06-08 05:10:00"185,3.66,3.634,188,6.798
"2016-06-08 05:20:00"186,3.69,3.67,183.8,5.989
"2016-06-08 05:30:00"187,3.824,3.792,185.5,7.418
"2016-06-08 05:40:00"188,3.444,3.424,184.3,6.227
"2016-06-08 05:50:00"189,3.319,3.298,178.4,6.481
"2016-06-08 06:00:00"190,3.4,3.364,177.8,8.33
"2016-06-08 06:10:00"191,3.327,3.309,177.8,5.905
"2016-06-08 06:20:00"192,3.618,3.607,176.4,4.414
"2016-06-08 06:30:00"193,3.476,3.442,173,8.05
"2016-06-08 06:40:00"194,3.302,3.283,171.4,6.107
"2016-06-08 06:50:00"195,3.189,3.152,169.5,8.82
"2016-06-08 07:00:00"196,2.594,2.557,172.1,9.64
"2016-06-08 07:10:00"197,2.378,2.334,155.1,11.05
"2016-06-08 07:20:00"198,2.351,2.281,157.7,13.97
"2016-06-08 07:30:00"199,2.192,2.161,159.5,9.6
"2016-06-08 07:40:00"200,1.988,1.965,161,8.7
"2016-06-08 07:50:00"201,1.905,1.869,170.7,11.16
"2016-06-08 08:00:00"202,1.858,1.808,176.7,13.38
"2016-06-08 08:10:00"203,2.368,2.342,177.2,8.57
"2016-06-08 08:20:00"204,2.635,2.602,173.5,8.96
"2016-06-08 08:30:00"205,2.733,2.723,166.9,5.037
"2016-06-08 08:40:00"206,2.873,2.86,163.2,5.579
"2016-06-08 08:50:00"207,2.645,2.61,161.1,9.38
"2016-06-08 09:00:00"208,2.645,2.623,164,7.364
"2016-06-08 09:10:00"209,2.748,2.725,160,7.486
"2016-06-08 09:30:00"210,2.777,2.754,155.5,7.282
"2016-06-08 09:40:00"211,3.013,2.997,162.2,5.924
"2016-06-08 09:50:00"212,3.064,3.034,158.2,8.05
"2016-06-08 10:00:00"213,3.096,3.081,159.8,5.608
"2016-06-08 10:10:00"214,3.121,3.105,162.9,5.832
"2016-06-08 10:20:00"215,3.251,3.228,166.4,6.741
"2016-06-08 10:30:00"216,3.226,3.208,168.2,6.085
"2016-06-08 10:40:00"217,3.096,3.066,160.1,8.05
"2016-06-08 10:50:00"218,3.55,3.516,162.8,7.885
"2016-06-08 11:00:00"219,3.488,3.474,168.7,5.246
"2016-06-08 11:10:00"220,3.694,3.679,168.1,5.232
"2016-06-08 11:20:00"221,3.214,3.196,165.9,6.01
"2016-06-08 11:30:00"222,3.218,3.189,164,7.648
"2016-06-08 11:40:00"223,2.905,2.873,167.3,8.47
"2016-06-08 11:50:00"224,2.92,2.893,160.8,7.801
"2016-06-08 12:00:00"225,3.003,2.975,163.9,7.845
"2016-06-08 12:10:00"226,3.118,3.092,169.3,7.419
"2016-06-08 12:20:00"227,3.189,3.168,172.5,6.694
"2016-06-08 12:30:00"228,3.2,3.181,169.8,6.161
"2016-06-08 12:40:00"229,3.113,3.085,169.4,7.696
"2016-06-08 12:50:00"230,3.226,3.204,169.5,6.769
"2016-06-08 13:00:00"231,3.479,3.461,174.8,5.753
"2016-06-08 13:10:00"232,3.121,3.095,171.5,7.383
"2016-06-08 13:20:00"233,3.086,3.064,162.8,6.918
"2016-06-08 13:30:00"234,2.858,2.831,164.5,7.907
"2016-06-08 13:40:00"235,3.04,2.986,170.4,10.8
"2016-06-08 13:50:00"236,2.983,2.958,164.4,7.436
"2016-06-08 14:00:00"237,2.741,2.693,170.9,10.71
"2016-06-08 14:10:00"238,2.841,2.815,175.6,7.828
"2016-06-08 14:20:00"239,2.672,2.649,176.4,7.494
"2016-06-08 14:30:00"240,2.777,2.741,173.5,9.11
"2016-06-08 14:40:00"241,2.748,2.723,172.4,7.744
"2016-06-08 14:50:00"242,3.006,2.988,178.5,6.177
"2016-06-08 15:00:00"243,2.635,2.608,173.4,8.23
"2016-06-08 15:10:00"244,2.653,2.636,174.4,6.335
"2016-06-08 15:20:00"245,3.064,3.041,180.1,7.002
"2016-06-08 15:30:00"246,3.344,3.323,183.7,6.47
"2016-06-08 15:40:00"247,3.476,3.465,188.5,4.696
"2016-06-08 15:50:00"248,3.346,3.317,186.5,7.572
"2016-06-08 16:00:00"249,3.464,3.45,186.4,5.109
"2016-06-08 16:10:00"250,3.437,3.415,187.6,6.425
"2016-06-08 16:20:00"251,3.28,3.26,188.3,6.325
"2016-06-08 16:30:00"252,3.422,3.409,191.8,5.027
"2016-06-08 16:40:00"253,3.42,3.388,194.2,7.819
"2016-06-08 16:50:00"254,3.383,3.357,192.3,7.08
"2016-06-08 17:00:00"255,3.533,3.516,189,5.563
"2016-06-08 17:10:00"256,3.42,3.399,193.4,6.383
"2016-06-08 17:20:00"257,3.685,3.663,196.2,6.236
"2016-06-08 17:30:00"258,3.512,3.498,199.8,5.208
"2016-06-08 17:40:00"259,3.589,3.566,201.4,6.551
"2016-06-08 17:50:00"260,4.158,4.146,200.2,4.356
"2016-06-08 18:00:00"261,4.043,4.011,201,7.2
"2016-06-08 18:10:00"262,3.903,3.878,209.2,6.392
"2016-06-08 18:20:00"263,3.675,3.653,206.4,6.273
"2016-06-08 18:30:00"264,3.605,3.586,200.9,5.847
"2016-06-08 18:40:00"265,3.457,3.415,205.1,8.84
"2016-06-08 18:50:00"266,3.479,3.406,204.4,11.72
"2016-06-08 19:00:00"267,3.726,3.703,205.4,6.388
"2016-06-08 19:10:00"268,3.667,3.643,205.2,6.64
"2016-06-08 19:20:00"269,3.655,3.644,206.2,4.507
"2016-06-08 19:30:00"270,3.334,3.309,202.4,7.018
"2016-06-08 19:40:00"271,3.623,3.612,200.4,4.484
"2016-06-08 19:50:00"272,3.297,3.286,201.3,4.793
"2016-06-08 20:00:00"273,3.251,3.233,197.7,5.955
"2016-06-08 20:10:00"274,3.292,3.261,199.6,7.877
"2016-06-08 20:20:00"275,3.297,3.28,204,5.865
"2016-06-08 20:30:00"276,3.59,3.577,203.3,4.821
"2016-06-08 20:40:00"277,3.503,3.483,204,6.088
"2016-06-08 20:50:00"278,3.709,3.696,199.4,4.858
"2016-06-08 21:00:00"279,3.435,3.423,200.4,4.637
"2016-06-08 21:10:00"280,3.454,3.446,198.9,3.965
"2016-06-08 21:20:00"281,3.295,3.275,197.8,6.349
"2016-06-08 21:30:00"282,3.51,3.483,192.3,6.976
"2016-06-08 21:40:00"283,3.626,3.613,195.1,4.841
"2016-06-08 21:50:00"284,3.66,3.65,197.6,4.251
"2016-06-08 22:00:00"285,3.371,3.361,194.2,4.408
"2016-06-08 22:10:00"286,3.457,3.434,193.9,6.607
"2016-06-08 22:20:00"287,3.422,3.401,191.4,6.335
"2016-06-08 22:30:00"288,3.412,3.401,190.3,4.672
"2016-06-08 22:40:00"289,3.496,3.484,190,4.765
"2016-06-08 22:50:00"290,3.31,3.303,188.8,3.656
"2016-06-08 23:00:00"291,3.133,3.117,189.7,5.727
"2016-06-08 23:10:00"292,3.025,3.019,195.6,3.753
"2016-06-08 23:20:00"293,3.307,3.284,193.8,6.698
"2016-06-08 23:30:00"294,3.564,3.55,192,5.033
"2016-06-08 23:40:00"295,3.015,2.972,187,9.67
"2016-06-08 23:50:00"296,2.77,2.754,184.6,6.211
"2016-06-09 00:00:00"297,3.194,3.178,187.2,5.751
"2016-06-09 00:10:00"298,3.184,3.162,188,6.833
"2016-06-09 00:20:00"299,3.221,3.21,184.6,4.772
"2016-06-09 00:30:00"300,3.391,3.381,182.1,4.452
"2016-06-09 00:40:00"301,3.001,2.979,176.8,6.853
"2016-06-09 00:50:00"302,2.569,2.546,170,7.772
"2016-06-09 01:00:00"303,2.442,2.412,177.5,8.87
"2016-06-09 01:10:00"304,2.488,2.463,176.6,8.09
"2016-06-09 01:20:00"305,2.322,2.311,175.3,5.535
"2016-06-09 01:30:00"306,2.464,2.452,172.2,5.698
"2016-06-09 01:40:00"307,2.045,2.004,160.5,11.41
"2016-06-09 01:50:00"308,1.853,1.823,149.2,10.4
"2016-06-09 02:00:00"309,2.008,1.975,152.9,10.4
"2016-06-09 02:10:00"310,1.956,1.92,159.2,11.1
"2016-06-09 02:20:00"311,2.02,1.996,156,8.78
"2016-06-09 02:30:00"312,2.16,2.144,153,6.853
"2016-06-09 02:40:00"313,2.052,2.036,155.6,7.023
"2016-06-09 02:50:00"314,1.905,1.875,149.2,10.19
"2016-06-09 03:00:00"315,1.665,1.634,150.2,11
"2016-06-09 03:10:00"316,1.699,1.676,153,9.5
"2016-06-09 03:20:00"317,1.861,1.834,156,9.69
"2016-06-09 03:30:00"318,2.103,2.087,167.9,7.029
"2016-06-09 03:40:00"319,2.236,2.22,168.5,6.811
"2016-06-09 03:50:00"320,2.255,2.237,169.8,7.216
"2016-06-09 04:00:00"321,2.027,2.004,164.8,8.65
"2016-06-09 04:10:00"322,1.998,1.976,168.3,8.49
"2016-06-09 04:20:00"323,2.165,2.149,163.5,6.939
"2016-06-09 04:30:00"324,2.155,2.129,157.6,8.87
"2016-06-09 04:40:00"325,1.91,1.871,162.6,11.51
"2016-06-09 04:50:00"326,1.87,1.844,165.3,9.66
"2016-06-09 05:00:00"327,1.959,1.945,169,6.675
"2016-06-09 05:10:00"328,1.826,1.812,170.1,7.303
"2016-06-09 05:20:00"329,1.9,1.888,173.9,6.382
"2016-06-09 05:30:00"330,1.953,1.941,175.3,6.406
"2016-06-09 05:40:00"331,1.924,1.899,176.6,9.32